Location: Linz
(48.3300°N, 14.3000°E)
Time: 06:36:15
(UTC+01:00)

Envisat - Pass Details

Date: 20 November 2017
Orbit: 764 x 766 km, 98.2° (Epoch: 22 November)

Event Time Altitude Azimuth Distance (km) Brightness Sun altitude
Exits shadow 19:12:49 15° 358° (N) 1,956 5.1 -28.6°
Drops below altitude 10° 19:13:46 10° 355° (N) 2,313 5.5 -28.7°
Sets 19:16:08 0° 351° (N) 3,244 6.4 -29.1°
